Weather observations for the past three days for
Baltimore, Inner Harbor
| Date | Time (edt) | Wind (mph) | Vis. (mi.) | Weather | Sky Cond. | Temperature (ºF) | Relative Humidity | Wind Chill (°F) | Heat Index (°F) | Pressure | Precipitation (in) | ||||||
|---|---|---|---|---|---|---|---|---|---|---|---|---|---|---|---|---|---|
| Air | Dwpt | 6 hour | altimeter (in) | sea level (mb) | 1 hr | 3 hr | 6 hr | ||||||||||
| Max. | Min. | ||||||||||||||||
| 02 | 04:53 | Calm | 0.00 | NULL | NULL | 75.9 | 71.1 | 85% | 76 | 30.05 | 1017.5 | ||||||
| 02 | 03:53 | Calm | 0.00 | NULL | NULL | 77 | 71.1 | 82% | 79 | 30.05 | 1017.5 | ||||||
| 02 | 02:53 | Calm | 0.00 | NULL | NULL | 78.1 | 70 | 76% | 80 | 30.04 | 1017.0 | ||||||
| 02 | 01:53 | Calm | 0.00 | NULL | NULL | 80.1 | 69.1 | 93 | 80.1 | 69% | 83 | 30.02 | 1016.4 | ||||
| 02 | 00:53 | Calm | 0.00 | NULL | NULL | 82 | 73 | 74% | 87 | 30.03 | 1017.0 | ||||||
| 01 | 23:53 | Calm | 0.00 | NULL | NULL | 81 | 73 | 77% | 86 | 30.01 | 1016.3 | ||||||
| 01 | 22:53 | Calm | 0.00 | NULL | NULL | 88 | 70 | 55% | 93 | 29.97 | 1015.0 | ||||||
| 01 | 21:53 | Calm | 0.00 | NULL | NULL | 89.1 | 71.1 | 55% | 95 | 29.96 | 1014.4 | ||||||
| 01 | 20:53 | Calm | 0.00 | NULL | NULL | 91 | 71.1 | 52% | 98 | 29.94 | 1013.9 | ||||||
| 01 | 19:53 | Calm | 0.00 | NULL | NULL | 93 | 71.1 | 97 | 91.9 | 49% | 100 | 29.91 | 1012.8 | ||||
| 01 | 18:53 | Calm | 0.00 | NULL | NULL | 93.9 | 71.1 | 48% | 101 | 29.92 | 1013.2 | ||||||
| 01 | 17:53 | Calm | 0.00 | NULL | NULL | 96.1 | 70 | 43% | 103 | 29.92 | 1013.3 | ||||||
| 01 | 16:53 | Calm | 0.00 | NULL | NULL | 96.1 | 69.1 | 41% | 102 | 29.93 | 1013.5 | ||||||
| 01 | 15:53 | Calm | 0.00 | NULL | NULL | 96.1 | 70 | 43% | 103 | 29.94 | 1013.9 | ||||||
| 01 | 14:53 | Calm | 0.00 | NULL | NULL | 93.9 | 71.1 | 48% | 101 | 29.97 | 1014.8 | ||||||
| 01 | 13:53 | Calm | 0.00 | NULL | NULL | 93 | 71.1 | 93 | 80.1 | 49% | 100 | 29.97 | 1015.0 | ||||
| 01 | 11:53 | Calm | 0.00 | NULL | NULL | 91.9 | 71.1 | 51% | 99 | 30 | 1015.7 | ||||||
| 01 | 10:53 | Calm | 0.00 | NULL | NULL | 89.1 | 70 | 53% | 94 | 30.01 | 1016.1 | ||||||
| 01 | 09:53 | Calm | 0.00 | NULL | NULL | 86 | 71.1 | 61% | 92 | 30.02 | 1016.4 | ||||||
| 01 | 08:53 | Calm | 0.00 | NULL | NULL | 84 | 71.1 | 65% | 89 | 30.03 | 1016.7 | ||||||
| 01 | 07:53 | Calm | 0.00 | NULL | NULL | 80.1 | 72 | 80.1 | 75.9 | 76% | 84 | 30.02 | 1016.6 | ||||
| 01 | 06:53 | Calm | 0.00 | NULL | NULL | 78.1 | 73 | 85% | 81 | 30.03 | 1016.7 | ||||||
| 01 | 05:53 | Calm | 0.00 | NULL | NULL | 77 | 73 | 88% | 78 | 30.02 | 1016.4 | ||||||
| 01 | 04:53 | Calm | 0.00 | NULL | NULL | 78.1 | 73 | 85% | 81 | 30.03 | 1016.7 | ||||||
| 01 | 03:53 | Calm | 0.00 | NULL | NULL | 78.1 | 72 | 82% | 80 | 30.02 | 1016.6 | ||||||
| 01 | 02:53 | Calm | 0.00 | NULL | NULL | 78.1 | 72 | 82% | 80 | 30.04 | 1017.1 | ||||||
| 01 | 01:53 | Calm | 0.00 | NULL | NULL | 80.1 | 72 | 81 | 79 | 76% | 84 | 30.05 | 1017.4 | ||||
| 01 | 00:53 | Calm | 0.00 | NULL | NULL | 80.1 | 71.1 | 74% | 84 | 30.06 | 1017.9 | ||||||
| 31 | 23:53 | Calm | 0.00 | NULL | NULL | 81 | 71.1 | 72% | 85 | 30.07 | 1018.1 | ||||||
| 31 | 22:53 | Calm | 0.00 | NULL | NULL | 80.1 | 71.1 | 74% | 84 | 30.07 | 1018.2 | ||||||
| 31 | 21:53 | Calm | 0.00 | NULL | NULL | 80.1 | 71.1 | 74% | 84 | 30.07 | 1018.1 | ||||||
| 31 | 20:53 | Calm | 0.00 | NULL | NULL | 81 | 72 | 74% | 85 | 30.06 | 1018.0 | ||||||
| 31 | 19:53 | Calm | 0.00 | NULL | NULL | 81 | 71.1 | 86 | 81 | 72% | 85 | 30.06 | 1017.8 | ||||
| 31 | 18:53 | Calm | 0.00 | NULL | NULL | 82 | 70 | 67% | 86 | 30.07 | 1018.2 | ||||||
| 31 | 17:53 | Calm | 0.00 | NULL | NULL | 84 | 66 | 55% | 86 | 30.07 | 1018.4 | ||||||
| 31 | 16:53 | Calm | 0.00 | NULL | NULL | 84.9 | 66.9 | 55% | 88 | 30.07 | 1018.3 | ||||||
| 31 | 15:53 | Calm | 0.00 | NULL | NULL | 84 | 66.9 | 57% | 87 | 30.08 | 1018.6 | ||||||
| 31 | 14:53 | Calm | 0.00 | NULL | NULL | 84.9 | 66.9 | 55% | 88 | 30.1 | 1019.1 | ||||||
| 31 | 13:53 | Calm | 0.00 | NULL | NULL | 84 | 68 | 86 | 77 | 59% | 87 | 30.11 | 1019.4 | ||||
| 31 | 12:53 | Calm | 0.00 | NULL | NULL | 84.9 | 66.9 | 55% | 88 | 30.11 | 1019.7 | ||||||
| 31 | 11:53 | Calm | 0.00 | NULL | NULL | 82.9 | 66 | 57% | 85 | 30.12 | 1019.9 | ||||||
| 31 | 10:53 | Calm | 0.00 | NULL | NULL | 82.9 | 69.1 | 63% | 87 | 30.13 | 1020.1 | ||||||
| 31 | 09:53 | Calm | 0.00 | NULL | NULL | 78.1 | 69.1 | 74% | 80 | 30.13 | 1020.2 | ||||||
| 31 | 08:53 | Calm | 0.00 | NULL | NULL | 78.1 | 68 | 71% | 80 | 30.12 | 1019.9 | ||||||
| 31 | 07:53 | Calm | 0.00 | NULL | NULL | 77 | 70 | 79 | 75.9 | 79% | 79 | 30.11 | 1019.6 | ||||
| 31 | 06:53 | Calm | 0.00 | NULL | NULL | 75.9 | 72 | 88% | 76 | 30.09 | 1019.0 | ||||||
| 31 | 05:53 | Calm | 0.00 | NULL | NULL | 77 | 71.1 | 82% | 79 | 30.08 | 1018.6 | ||||||
| 31 | 04:53 | Calm | 0.00 | NULL | NULL | 75.9 | 70 | 82% | 77 | 30.07 | 1018.3 | ||||||
| 31 | 03:53 | Calm | 0.00 | NULL | NULL | 77 | 70 | 79% | 79 | 30.07 | 1018.3 | ||||||
| 31 | 02:53 | Calm | 0.00 | NULL | NULL | 77 | 70 | 79% | 79 | 30.08 | 1018.5 | ||||||
| 31 | 01:53 | Calm | 0.00 | NULL | NULL | 79 | 68 | 84 | 78.1 | 69% | 81 | 30.09 | 1018.7 | ||||
| 31 | 00:53 | Calm | 0.00 | NULL | NULL | 80.1 | 68 | 67% | 83 | 30.09 | 1018.8 | ||||||
| 30 | 23:53 | Calm | 0.00 | NULL | NULL | 80.1 | 68 | 67% | 83 | 30.09 | 1018.9 | ||||||
| 30 | 22:53 | Calm | 0.00 | NULL | NULL | 80.1 | 69.1 | 69% | 83 | 30.1 | 1019.2 | ||||||
| 30 | 21:53 | Calm | 0.00 | NULL | NULL | 81 | 72 | 74% | 85 | 30.1 | 1019.3 | ||||||
| 30 | 20:53 | Calm | 0.00 | NULL | NULL | 82.9 | 73 | 72% | 89 | 30.09 | 1019.0 | ||||||
| 30 | 19:53 | Calm | 0.00 | NULL | NULL | 84 | 73 | 91 | 84 | 70% | 90 | 30.07 | 1018.2 | ||||
| 30 | 18:53 | Calm | 0.00 | NULL | NULL | 86 | 66.9 | 53% | 89 | 30.07 | 1018.2 | ||||||
| 30 | 17:53 | Calm | 0.00 | NULL | NULL | 87.1 | 66.9 | 51% | 90 | 30.07 | 1018.1 | ||||||
| 30 | 16:53 | Calm | 0.00 | NULL | NULL | 89.1 | 66.9 | 48% | 92 | 30.06 | 1018.0 | ||||||
| 30 | 15:53 | Calm | 0.00 | NULL | NULL | 90 | 68 | 48% | 94 | 30.07 | 1018.1 | ||||||
| 30 | 14:53 | Calm | 0.00 | NULL | NULL | 88 | 68 | 52% | 92 | 30.11 | 1019.5 | ||||||
| 30 | 13:53 | Calm | 0.00 | NULL | NULL | 87.1 | 66.9 | 88 | 73.9 | 51% | 90 | 30.13 | 1020.2 | ||||
| 30 | 12:53 | Calm | 0.00 | NULL | NULL | 84.9 | 68 | 57% | 88 | 30.15 | 1020.9 | ||||||
| 30 | 11:53 | Calm | 0.00 | NULL | NULL | 82 | 69.1 | 65% | 85 | 30.18 | 1021.8 | ||||||
| 30 | 10:53 | Calm | 0.00 | NULL | NULL | 79 | 69.1 | 72% | 82 | 30.17 | 1021.8 | ||||||
| 30 | 09:53 | Calm | 0.00 | NULL | NULL | 77 | 69.1 | 77% | 79 | 30.18 | 1022.0 | ||||||
| 30 | 08:53 | Calm | 0.00 | NULL | NULL | 75.9 | 69.1 | 79% | 77 | 30.2 | 1022.8 | ||||||
| 30 | 07:53 | Calm | 0.00 | NULL | NULL | 73.9 | 69.1 | 73.9 | 71.1 | 85% | 30.21 | 1022.9 | |||||
| 30 | 06:53 | Calm | 0.00 | NULL | NULL | 73 | 68 | 84% | 30.21 | 1022.9 | |||||||
| 30 | 05:53 | Calm | 0.00 | NULL | NULL | 73 | 64 | 74% | 30.21 | 1022.8 | |||||||
| Date | Time (edt) | Wind (mph) | Vis. (mi.) | Weather | Sky Cond. | Air | Dwpt | Max. | Min. | Relative Humidity | Wind Chill (°F) | Heat Index (°F) | altimeter (in) | sea level (mb) | 1 hr | 3 hr | 6 hr |
| 6 hour | |||||||||||||||||
| Temperature (ºF) | Pressure | Precipitation (in) | |||||||||||||||